| time (UTC) | temp F | wind direction | speed MPH | gust MPH | rain 1hr in | rain 24hr in | rain mn in | humidity % | barometer mb |
| 20260902113120 | 63 | 171 | 1.0 | 2.0 | 0.00 | 0.00 | 0.00 | 99 | 1020.9 |
| 20260902112609 | 63 | 199 | 0.0 | 1.0 | 0.00 | 0.00 | 0.00 | 99 | 1020.7 |
| 20260902112106 | 63 | 166 | 2.0 | 3.0 | 0.00 | 0.00 | 0.00 | 99 | 1020.9 |
| 20260902111602 | 63 | 91 | 1.0 | 2.0 | 0.00 | 0.00 | 0.00 | 99 | 1020.8 |
| 20260902111057 | 63 | 150 | 0.0 | 1.0 | 0.00 | 0.00 | 0.00 | 99 | 1020.8 |
| 20260902110553 | 63 | 182 | 1.0 | 1.0 | 0.00 | 0.00 | 0.00 | 99 | 1020.8 |
| 20260902110049 | 63 | 105 | 2.0 | 3.0 | 0.00 | 1.02 | 1.02 | 99 | 1021.2 |
| 20260902105544 | 63 | 100 | 1.0 | 3.0 | 0.00 | 1.02 | 1.02 | 99 | 1021.1 |
| 20260902105043 | 63 | 189 | 0.0 | 0.0 | 0.00 | 1.02 | 1.02 | 99 | 1021.1 |
| 20260902104539 | 64 | 170 | 1.0 | 2.0 | 0.00 | 1.02 | 1.02 | 99 | 1021.0 |
| 20260902104038 | 64 | 178 | 1.0 | 2.0 | 0.00 | 1.02 | 1.02 | 99 | 1021.1 |
| 20260902103534 | 64 | 194 | 0.0 | 1.0 | 0.00 | 1.02 | 1.02 | 99 | 1021.3 |
| 20260902103029 | 64 | 177 | 0.0 | 2.0 | 0.00 | 1.02 | 1.02 | 99 | 1021.2 |
| 20260902102526 | 64 | 213 | 0.0 | 0.0 | 0.00 | 1.02 | 1.02 | 99 | 1021.0 |
| 20260902102022 | 64 | 216 | 0.0 | 0.0 | 0.00 | 1.02 | 1.02 | 99 | 1021.1 |
| 20260902101517 | 64 | 191 | 1.0 | 2.0 | 0.00 | 1.02 | 1.02 | 99 | 1021.0 |
| 20260902101017 | 65 | 235 | 0.0 | 2.0 | 0.00 | 1.02 | 1.02 | 99 | 1021.0 |
| 20260902100512 | 65 | 230 | 0.0 | 1.0 | 0.00 | 1.02 | 1.02 | 99 | 1021.0 |
| 20260902100011 | 65 | 228 | 0.0 | 1.0 | 0.00 | 1.02 | 1.02 | 99 | 1020.9 |
| 20260902095511 | 65 | 183 | 1.0 | 2.0 | 0.00 | 1.02 | 1.02 | 99 | 1020.9 |
| 20260902095010 | 65 | 191 | 0.0 | 0.0 | 0.00 | 1.02 | 1.02 | 99 | 1020.9 |
| 20260902094506 | 65 | 232 | 0.0 | 2.0 | 0.00 | 1.02 | 1.02 | 99 | 1020.9 |
| 20260902094002 | 65 | 161 | 1.0 | 2.0 | 0.00 | 1.02 | 1.02 | 99 | 1020.9 |
| 20260902093456 | 66 | 216 | 0.0 | 1.0 | 0.00 | 1.02 | 1.02 | 99 | 1020.9 |
| 20260902092955 | 66 | 205 | 0.0 | 0.0 | 0.00 | 1.02 | 1.02 | 99 | 1021.0 |
| 20260902092451 | 66 | 176 | 1.0 | 1.0 | 0.00 | 1.02 | 1.02 | 99 | 1020.9 |
| 20260902091951 | 66 | 236 | 0.0 | 0.0 | 0.00 | 1.02 | 1.02 | 99 | 1020.9 |
| 20260902091446 | 66 | 212 | 0.0 | 1.0 | 0.00 | 1.02 | 1.02 | 99 | 1020.8 |
| 20260902090943 | 66 | 279 | 1.0 | 2.0 | 0.00 | 1.02 | 1.02 | 99 | 1020.8 |
| 20260902090438 | 66 | 208 | 0.0 | 0.0 | 0.00 | 1.02 | 1.02 | 99 | 1020.9 |
| 20260902085936 | 66 | 170 | 0.0 | 3.0 | 0.00 | 1.02 | 1.02 | 99 | 1020.7 |
| 20260902085432 | 66 | 210 | 0.0 | 0.0 | 0.00 | 1.02 | 1.02 | 99 | 1020.7 |
| 20260902084927 | 66 | 180 | 0.0 | 0.0 | 0.00 | 1.02 | 1.02 | 99 | 1020.7 |
| 20260902084423 | 66 | 165 | 0.0 | 2.0 | 0.00 | 1.02 | 1.02 | 99 | 1020.7 |
| 20260902083918 | 66 | 207 | 0.0 | 0.0 | 0.00 | 1.02 | 1.02 | 99 | 1020.6 |
| 20260902083413 | 66 | 210 | 0.0 | 0.0 | 0.00 | 1.02 | 1.02 | 99 | 1020.5 |
| 20260902082907 | 66 | 218 | 0.0 | 0.0 | 0.00 | 1.02 | 1.02 | 99 | 1020.6 |
| 20260902082403 | 66 | 209 | 0.0 | 0.0 | 0.00 | 1.02 | 1.02 | 99 | 1020.7 |
| 20260902081900 | 66 | 181 | 1.0 | 1.0 | 0.00 | 1.02 | 1.02 | 99 | 1020.4 |
| 20260902081356 | 66 | 212 | 0.0 | 1.0 | 0.00 | 1.02 | 1.02 | 99 | 1020.4 |
| 20260902080856 | 66 | 224 | 0.0 | 0.0 | 0.00 | 1.02 | 1.02 | 99 | 1020.4 |
| 20260902080352 | 66 | 213 | 0.0 | 0.0 | 0.00 | 1.02 | 1.02 | 99 | 1020.6 |
| 20260902075851 | 67 | 102 | 0.0 | 0.0 | 0.00 | 1.02 | 1.02 | 99 | 1020.5 |
| 20260902075349 | 67 | 229 | 0.0 | 0.0 | 0.00 | 1.02 | 1.02 | 99 | 1020.7 |
| 20260902074849 | 67 | 178 | 0.0 | 1.0 | 0.00 | 1.02 | 1.02 | 99 | 1020.5 |
| 20260902074344 | 67 | 214 | 0.0 | 2.0 | 0.00 | 1.02 | 1.02 | 99 | 1020.5 |
| 20260902073839 | 67 | 207 | 0.0 | 1.0 | 0.07 | 1.02 | 1.02 | 99 | 1020.3 |
| 20260902073336 | 67 | 185 | 0.0 | 0.0 | 0.07 | 1.02 | 1.02 | 99 | 1020.5 |
| 20260902072831 | 67 | 195 | 0.0 | 1.0 | 0.00 | 1.01 | 1.01 | 99 | 1020.3 |
| 20260902072326 | 67 | 164 | 0.0 | 0.0 | 0.00 | 1.01 | 1.01 | 99 | 1020.7 |
| 20260902071823 | 67 | 174 | 1.0 | 1.0 | 0.00 | 1.01 | 1.01 | 99 | 1020.5 |
| 20260902071317 | 67 | 185 | 0.0 | 2.0 | 0.00 | 1.01 | 1.01 | 99 | 1020.5 |
| 20260902070814 | 67 | 176 | 0.0 | 0.0 | 0.00 | 1.01 | 1.01 | 99 | 1020.4 |
| 20260902070314 | 67 | 195 | 0.0 | 2.0 | 0.00 | 1.01 | 1.01 | 99 | 1020.5 |
| 20260902065813 | 67 | 173 | 1.0 | 2.0 | 0.00 | 1.01 | 1.01 | 99 | 1020.5 |
| 20260902065308 | 67 | 199 | 0.0 | 0.0 | 0.00 | 1.01 | 1.01 | 99 | 1020.6 |
| 20260902064803 | 67 | 191 | 0.0 | 3.0 | 0.00 | 1.01 | 1.01 | 99 | 1020.7 |
| 20260902064259 | 67 | 201 | 0.0 | 1.0 | 0.00 | 1.01 | 1.01 | 99 | 1020.4 |
| 20260902063755 | 67 | 175 | 0.0 | 1.0 | 0.00 | 1.01 | 1.01 | 99 | 1020.6 |
| 20260902063249 | 67 | 80 | 0.0 | 2.0 | 0.00 | 1.01 | 1.01 | 99 | 1020.6 |
| 20260902062749 | 67 | 164 | 0.0 | 0.0 | 0.00 | 1.01 | 1.01 | 99 | 1020.6 |
| 20260902062243 | 67 | 176 | 0.0 | 1.0 | 0.00 | 1.01 | 1.01 | 99 | 1020.7 |
| 20260902061742 | 67 | 204 | 0.0 | 1.0 | 0.00 | 1.01 | 1.01 | 99 | 1020.7 |
| 20260902061238 | 67 | 201 | 0.0 | 2.0 | 0.00 | 1.01 | 1.01 | 99 | 1020.9 |
| 20260902060735 | 68 | 195 | 0.0 | 1.0 | 0.00 | 1.01 | 1.01 | 99 | 1020.7 |
| 20260902060231 | 68 | 166 | 0.0 | 0.0 | 0.00 | 1.01 | 1.01 | 99 | 1020.7 |
| 20260902055726 | 68 | 166 | 0.0 | 1.0 | 0.00 | 1.01 | 1.01 | 99 | 1020.6 |
| 20260902055222 | 68 | 178 | 0.0 | 0.0 | 0.00 | 1.01 | 1.01 | 99 | 1020.8 |
| 20260902054717 | 68 | 191 | 0.0 | 0.0 | 0.00 | 1.01 | 1.01 | 99 | 1020.7 |
| 20260902054213 | 68 | 189 | 0.0 | 0.0 | 0.00 | 1.01 | 1.01 | 99 | 1020.7 |
| 20260902053708 | 68 | 107 | 0.0 | 2.0 | 0.00 | 1.01 | 1.01 | 99 | 1020.6 |
| 20260902053208 | 68 | 195 | 0.0 | 1.0 | 0.00 | 1.01 | 1.01 | 99 | 1020.7 |
| 20260902052707 | 68 | 195 | 0.0 | 0.0 | 0.00 | 1.01 | 1.01 | 99 | 1020.6 |
| 20260902052202 | 68 | 174 | 0.0 | 0.0 | 0.00 | 1.01 | 1.01 | 99 | 1020.6 |
| 20260902051701 | 68 | 194 | 0.0 | 0.0 | 0.00 | 1.01 | 1.01 | 99 | 1020.7 |
| 20260902051156 | 68 | 189 | 0.0 | 0.0 | 0.00 | 1.01 | 1.01 | 99 | 1020.7 |
| 20260902050651 | 68 | 113 | 0.0 | 0.0 | 0.00 | 1.01 | 1.01 | 99 | 1020.6 |
| 20260902050146 | 68 | 223 | 0.0 | 3.0 | 0.00 | 1.01 | 1.01 | 99 | 1020.5 |
| 20260902045641 | 68 | 173 | 0.0 | 0.0 | 0.00 | 1.01 | 1.01 | 99 | 1020.6 |
| 20260902045138 | 68 | 168 | 1.0 | 2.0 | 0.00 | 1.01 | 1.01 | 99 | 1020.6 |
| 20260902044637 | 68 | 206 | 0.0 | 0.0 | 0.00 | 1.01 | 1.01 | 99 | 1020.6 |
| 20260902044134 | 68 | 188 | 0.0 | 2.0 | 0.00 | 1.01 | 1.01 | 99 | 1020.4 |
| 20260902043629 | 68 | 195 | 0.0 | 0.0 | 0.00 | 1.01 | 1.01 | 99 | 1020.5 |
| 20260902043124 | 68 | 208 | 0.0 | 0.0 | 0.00 | 1.01 | 1.01 | 99 | 1020.5 |
| 20260902042623 | 68 | 197 | 0.0 | 1.0 | 0.00 | 1.01 | 1.01 | 99 | 1020.4 |
| 20260902042119 | 68 | 206 | 0.0 | 0.0 | 0.00 | 1.01 | 1.01 | 99 | 1020.6 |
| 20260902041618 | 68 | 205 | 0.0 | 0.0 | 0.00 | 1.01 | 1.01 | 99 | 1020.5 |
| 20260902041113 | 68 | 206 | 0.0 | 0.0 | 0.00 | 1.01 | 1.01 | 99 | 1020.5 |
| 20260902040607 | 67 | 206 | 0.0 | 0.0 | 0.00 | 1.01 | 1.01 | 99 | 1020.4 |
| 20260902035600 | 67 | 205 | 0.0 | 0.0 | 0.00 | 1.01 | 1.01 | 99 | 1020.1 |
| 20260902035056 | 67 | 204 | 0.0 | 0.0 | 0.00 | 1.01 | 1.01 | 99 | 1020.4 |
| 20260902034555 | 67 | 203 | 0.0 | 0.0 | 0.00 | 1.01 | 1.01 | 99 | 1020.2 |
| 20260902034055 | 66 | 205 | 0.0 | 0.0 | 0.00 | 1.01 | 1.01 | 99 | 1020.2 |
| 20260902033554 | 66 | 201 | 0.0 | 0.0 | 0.00 | 1.01 | 1.01 | 99 | 1020.1 |
| 20260902033049 | 65 | 203 | 0.0 | 1.0 | 0.00 | 1.01 | 1.01 | 99 | 1020.3 |
| 20260902032548 | 64 | 207 | 0.0 | 0.0 | 0.00 | 1.01 | 1.01 | 99 | 1020.1 |
| 20260902032043 | 64 | 205 | 0.0 | 0.0 | 0.00 | 1.01 | 1.01 | 99 | 1019.9 |
| 20260902031537 | 64 | 205 | 0.0 | 0.0 | 0.00 | 1.01 | 1.01 | 99 | 1019.8 |
| 20260902031034 | 65 | 205 | 0.0 | 0.0 | 0.00 | 1.01 | 1.01 | 99 | 1019.8 |
| 20260902030534 | 65 | 205 | 0.0 | 0.0 | 0.00 | 1.01 | 1.01 | 99 | 1019.7 |
| 20260902030034 | 65 | 205 | 0.0 | 0.0 | 0.00 | 1.01 | 1.01 | 99 | 1019.3 |
| 20260902025529 | 65 | 205 | 0.0 | 0.0 | 0.00 | 1.01 | 1.01 | 99 | 1019.3 |
| 20260902025024 | 65 | 205 | 0.0 | 0.0 | 0.00 | 1.01 | 1.01 | 99 | 1019.3 |
| 20260902024519 | 65 | 205 | 0.0 | 0.0 | 0.00 | 1.01 | 1.01 | 99 | 1019.3 |
| 20260902024019 | 65 | 205 | 0.0 | 0.0 | 0.00 | 1.01 | 1.01 | 99 | 1019.4 |
| 20260902023515 | 65 | 205 | 0.0 | 0.0 | 0.00 | 1.01 | 1.01 | 99 | 1019.4 |
| 20260902023015 | 65 | 205 | 0.0 | 0.0 | 0.00 | 1.01 | 1.01 | 99 | 1019.5 |
| 20260902022509 | 66 | 205 | 0.0 | 0.0 | 0.00 | 1.01 | 1.01 | 99 | 1019.8 |
| 20260902022005 | 66 | 205 | 0.0 | 0.0 | 0.00 | 1.01 | 1.01 | 99 | 1019.9 |
| 20260902021500 | 66 | 205 | 0.0 | 0.0 | 0.00 | 1.01 | 1.01 | 99 | 1019.8 |
| 20260902020955 | 66 | 205 | 0.0 | 0.0 | 0.00 | 1.01 | 1.01 | 99 | 1019.9 |
| 20260902020451 | 66 | 205 | 0.0 | 0.0 | 0.00 | 1.01 | 1.01 | 99 | 1019.5 |
| 20260902015947 | 66 | 205 | 0.0 | 0.0 | 0.00 | 1.01 | 1.01 | 99 | 1019.5 |
| 20260902015443 | 66 | 205 | 0.0 | 0.0 | 0.00 | 1.01 | 1.01 | 99 | 1019.5 |
| 20260902014938 | 66 | 205 | 0.0 | 0.0 | 0.00 | 1.01 | 1.01 | 99 | 1020.1 |
| 20260902014434 | 66 | 205 | 0.0 | 0.0 | 0.00 | 1.01 | 1.01 | 99 | 1019.9 |
| 20260902013933 | 66 | 204 | 0.0 | 0.0 | 0.00 | 1.01 | 1.01 | 99 | 1019.9 |
| 20260902013429 | 66 | 204 | 0.0 | 0.0 | 0.00 | 1.01 | 1.01 | 99 | 1019.9 |
| 20260902012924 | 66 | 204 | 0.0 | 0.0 | 0.00 | 1.01 | 1.01 | 99 | 1020.0 |
| 20260902012420 | 66 | 205 | 0.0 | 0.0 | 0.00 | 1.01 | 1.01 | 99 | 1019.7 |
| 20260902011915 | 66 | 204 | 0.0 | 0.0 | 0.00 | 1.01 | 1.01 | 99 | 1019.8 |
| 20260902011410 | 66 | 205 | 0.0 | 0.0 | 0.00 | 1.01 | 1.01 | 99 | 1019.9 |
| 20260902010905 | 67 | 204 | 0.0 | 0.0 | 0.00 | 1.01 | 1.01 | 99 | 1019.4 |
| 20260902010359 | 67 | 204 | 0.0 | 0.0 | 0.00 | 1.01 | 1.01 | 99 | 1019.8 |
| 20260902005858 | 66 | 214 | 0.0 | 0.0 | 0.00 | 1.01 | 1.01 | 99 | 1019.5 |
| 20260902005353 | 67 | 214 | 0.0 | 0.0 | 0.00 | 1.01 | 1.01 | 99 | 1019.2 |
| 20260902004849 | 67 | 214 | 0.0 | 0.0 | 0.00 | 1.01 | 1.01 | 99 | 1019.0 |
| 20260902004348 | 67 | 214 | 0.0 | 0.0 | 0.00 | 1.01 | 1.01 | 99 | 1018.9 |
| 20260902003843 | 67 | 214 | 0.0 | 0.0 | 0.00 | 1.01 | 1.01 | 99 | 1019.1 |
| 20260902003338 | 68 | 214 | 0.0 | 0.0 | 0.00 | 1.01 | 1.01 | 99 | 1019.1 |
| 20260902002834 | 68 | 218 | 0.0 | 0.0 | 0.00 | 1.01 | 1.01 | 99 | 1019.2 |
| 20260902002333 | 68 | 218 | 0.0 | 0.0 | 0.00 | 1.01 | 1.01 | 99 | 1018.8 |
| 20260902001829 | 68 | 218 | 0.0 | 0.0 | 0.00 | 1.01 | 1.01 | 99 | 1018.7 |
| 20260902001318 | 68 | 218 | 0.0 | 0.0 | 0.00 | 1.01 | 1.01 | 99 | 1018.7 |
| 20260902000813 | 68 | 218 | 0.0 | 0.0 | 0.00 | 1.01 | 1.01 | 99 | 1018.6 |
| 20260902000313 | 69 | 229 | 0.0 | 0.0 | 0.00 | 1.01 | 1.01 | 99 | 1018.4 |
| 20260901235808 | 69 | 229 | 0.0 | 0.0 | 0.00 | 1.01 | 1.01 | 99 | 1018.7 |
| 20260901235307 | 69 | 229 | 0.0 | 0.0 | 0.00 | 1.01 | 1.01 | 99 | 1018.6 |
| 20260901234801 | 69 | 229 | 0.0 | 0.0 | 0.00 | 1.01 | 1.01 | 99 | 1018.5 |
| 20260901234252 | 69 | 229 | 0.0 | 0.0 | 0.00 | 1.01 | 1.01 | 99 | 1018.9 |
| 20260901233746 | 69 | 229 | 0.0 | 0.0 | 0.00 | 1.01 | 1.01 | 99 | 1018.9 |
| 20260901233242 | 69 | 229 | 0.0 | 0.0 | 0.00 | 1.01 | 1.01 | 99 | 1018.9 |
| 20260901232736 | 69 | 229 | 0.0 | 0.0 | 0.00 | 1.01 | 1.01 | 99 | 1018.6 |
| 20260901232226 | 70 | 229 | 0.0 | 0.0 | 0.00 | 1.01 | 1.01 | 99 | 1018.7 |
| 20260901231722 | 70 | 229 | 0.0 | 0.0 | 0.00 | 1.01 | 1.01 | 99 | 1018.6 |
| 20260901231218 | 70 | 229 | 0.0 | 0.0 | 0.00 | 1.01 | 1.01 | 99 | 1018.7 |
| 20260901230713 | 70 | 229 | 0.0 | 0.0 | 0.00 | 1.01 | 1.01 | 99 | 1018.4 |
| 20260901230213 | 70 | 229 | 0.0 | 0.0 | 0.00 | 1.01 | 1.01 | 99 | 1018.7 |
| 20260901225708 | 71 | 229 | 0.0 | 0.0 | 0.00 | 1.01 | 1.01 | 99 | 1018.6 |
| 20260901225202 | 71 | 229 | 0.0 | 0.0 | 0.00 | 1.01 | 1.01 | 99 | 1018.7 |
| 20260901224659 | 71 | 229 | 0.0 | 0.0 | 0.00 | 1.01 | 1.01 | 99 | 1018.6 |
| 20260901224155 | 71 | 229 | 0.0 | 0.0 | 0.00 | 1.01 | 1.01 | 99 | 1018.6 |
| 20260901223650 | 71 | 229 | 0.0 | 0.0 | 0.00 | 1.01 | 1.01 | 99 | 1018.4 |
| 20260901223145 | 71 | 229 | 0.0 | 0.0 | 0.00 | 1.01 | 1.01 | 99 | 1018.7 |
| 20260901222641 | 72 | 220 | 0.0 | 0.0 | 0.00 | 1.01 | 1.01 | 99 | 1018.4 |
| 20260901222137 | 72 | 224 | 0.0 | 0.0 | 0.00 | 1.01 | 1.01 | 99 | 1018.4 |
| 20260901221633 | 72 | 230 | 0.0 | 0.0 | 0.00 | 1.01 | 1.01 | 99 | 1018.3 |
| 20260901221129 | 72 | 227 | 0.0 | 0.0 | 0.00 | 1.01 | 1.01 | 99 | 1018.2 |
| 20260901220627 | 71 | 233 | 0.0 | 0.0 | 0.00 | 1.01 | 1.01 | 99 | 1018.3 |
| 20260901220127 | 72 | 224 | 0.0 | 0.0 | 0.00 | 1.01 | 1.01 | 99 | 1018.1 |
| 20260901215625 | 72 | 220 | 0.0 | 0.0 | 0.00 | 1.01 | 1.01 | 99 | 1018.1 |
| 20260901215120 | 72 | 211 | 0.0 | 1.0 | 0.00 | 1.01 | 1.01 | 99 | 1018.0 |
| 20260901214618 | 72 | 226 | 0.0 | 1.0 | 0.00 | 1.01 | 1.01 | 99 | 1018.1 |
| 20260901214113 | 72 | 221 | 0.0 | 0.0 | 0.00 | 1.01 | 1.01 | 99 | 1018.0 |
| 20260901213612 | 72 | 213 | 0.0 | 0.0 | 0.00 | 1.01 | 1.01 | 99 | 1018.1 |
| 20260901213108 | 73 | 238 | 0.0 | 0.0 | 0.00 | 1.01 | 1.01 | 99 | 1018.1 |
| 20260901212607 | 73 | 234 | 2.0 | 3.0 | 0.00 | 1.01 | 1.01 | 99 | 1018.2 |
| 20260901212103 | 73 | 235 | 0.0 | 0.0 | 0.00 | 1.01 | 1.01 | 99 | 1018.2 |
| 20260901211558 | 73 | 227 | 0.0 | 0.0 | 0.00 | 1.01 | 1.01 | 99 | 1018.0 |
| 20260901211055 | 73 | 241 | 0.0 | 1.0 | 0.00 | 1.01 | 1.01 | 99 | 1017.9 |
| 20260901210549 | 73 | 204 | 1.0 | 2.0 | 0.00 | 1.01 | 1.01 | 98 | 1017.6 |
| 20260901210046 | 73 | 189 | 1.0 | 1.0 | 0.00 | 1.01 | 1.01 | 98 | 1017.8 |
| 20260901205541 | 73 | 211 | 0.0 | 0.0 | 0.00 | 1.01 | 1.01 | 98 | 1017.6 |
| 20260901205036 | 73 | 215 | 0.0 | 1.0 | 0.00 | 1.01 | 1.01 | 99 | 1017.4 |
| 20260901204532 | 73 | 229 | 0.0 | 0.0 | 0.00 | 1.01 | 1.01 | 99 | 1018.0 |
| 20260901204027 | 73 | 225 | 0.0 | 1.0 | 0.00 | 1.01 | 1.01 | 99 | 1017.8 |
| 20260901203526 | 74 | 215 | 0.0 | 0.0 | 0.00 | 1.01 | 1.01 | 98 | 1017.8 |
| 20260901203022 | 73 | 211 | 0.0 | 2.0 | 0.00 | 1.01 | 1.01 | 98 | 1017.9 |
| 20260901202516 | 73 | 189 | 0.0 | 1.0 | 0.00 | 1.01 | 1.01 | 98 | 1018.2 |
| 20260901202012 | 73 | 172 | 1.0 | 2.0 | 0.00 | 1.01 | 1.01 | 99 | 1017.9 |
| 20260901201508 | 73 | 258 | 2.0 | 2.0 | 0.00 | 1.01 | 1.01 | 98 | 1018.1 |
| 20260901201002 | 73 | 211 | 2.0 | 3.0 | 0.00 | 1.01 | 1.01 | 99 | 1018.1 |
| 20260901200457 | 73 | 190 | 0.0 | 2.0 | 0.00 | 1.01 | 1.01 | 99 | 1017.9 |
| 20260901195956 | 73 | 211 | 0.0 | 0.0 | 0.00 | 1.01 | 1.01 | 99 | 1017.9 |
| 20260901195454 | 72 | 231 | 0.0 | 0.0 | 0.00 | 1.01 | 1.01 | 99 | 1017.9 |
| 20260901194943 | 72 | 221 | 0.0 | 2.0 | 0.00 | 1.01 | 1.01 | 99 | 1018.0 |
| 20260901194438 | 72 | 208 | 0.0 | 0.0 | 0.00 | 1.01 | 1.01 | 99 | 1018.1 |
| 20260901193935 | 72 | 208 | 0.0 | 0.0 | 0.00 | 1.01 | 1.01 | 99 | 1018.0 |
| 20260901193434 | 72 | 224 | 0.0 | 0.0 | 0.00 | 1.01 | 1.01 | 99 | 1018.1 |
| 20260901192933 | 72 | 219 | 0.0 | 0.0 | 0.00 | 1.01 | 1.01 | 99 | 1018.0 |
| 20260901192429 | 72 | 215 | 0.0 | 0.0 | 0.00 | 1.01 | 1.01 | 99 | 1017.9 |
| 20260901191925 | 72 | 214 | 0.0 | 0.0 | 0.00 | 1.01 | 1.01 | 99 | 1017.9 |
| 20260901191422 | 72 | 217 | 0.0 | 0.0 | 0.00 | 1.01 | 1.01 | 99 | 1017.9 |
| 20260901190916 | 72 | 230 | 0.0 | 1.0 | 0.00 | 1.01 | 1.01 | 99 | 1017.8 |
| 20260901190411 | 72 | 239 | 0.0 | 0.0 | 0.00 | 1.01 | 1.01 | 99 | 1017.5 |
| 20260901185909 | 72 | 222 | 0.0 | 0.0 | 0.00 | 1.01 | 1.01 | 99 | 1017.8 |
| 20260901185409 | 72 | 223 | 0.0 | 0.0 | 0.00 | 1.01 | 1.01 | 99 | 1017.6 |
| 20260901184903 | 71 | 217 | 0.0 | 0.0 | 0.00 | 1.01 | 1.01 | 99 | 1017.4 |
| 20260901184359 | 71 | 220 | 0.0 | 0.0 | 0.00 | 1.01 | 1.01 | 99 | 1017.6 |
| 20260901183854 | 71 | 225 | 0.0 | 0.0 | 0.00 | 1.01 | 1.01 | 99 | 1017.6 |
| 20260901183353 | 71 | 230 | 0.0 | 2.0 | 0.00 | 1.01 | 1.01 | 99 | 1017.5 |
| 20260901182849 | 71 | 217 | 0.0 | 0.0 | 0.00 | 1.01 | 1.01 | 99 | 1017.4 |
| 20260901182350 | 71 | 230 | 0.0 | 0.0 | 0.00 | 1.01 | 1.01 | 99 | 1017.3 |
| 20260901181844 | 71 | 238 | 0.0 | 1.0 | 0.00 | 1.01 | 1.01 | 99 | 1017.5 |
| 20260901181339 | 71 | 224 | 0.0 | 0.0 | 0.00 | 1.01 | 1.01 | 99 | 1017.3 |
| 20260901180838 | 71 | 232 | 0.0 | 0.0 | 0.00 | 1.01 | 1.01 | 99 | 1017.2 |
| 20260901180337 | 71 | 219 | 0.0 | 0.0 | 0.00 | 1.01 | 1.01 | 99 | 1017.2 |
| 20260901175836 | 71 | 228 | 0.0 | 0.0 | 0.00 | 1.01 | 1.01 | 99 | 1017.2 |
| 20260901175331 | 71 | 195 | 0.0 | 0.0 | 0.00 | 1.01 | 1.01 | 99 | 1017.1 |
| 20260901174826 | 71 | 219 | 0.0 | 0.0 | 0.00 | 1.01 | 1.01 | 99 | 1017.3 |
| 20260901174322 | 71 | 234 | 0.0 | 0.0 | 0.00 | 1.01 | 1.01 | 99 | 1017.2 |
| 20260901173817 | 71 | 205 | 0.0 | 0.0 | 0.00 | 1.01 | 1.01 | 99 | 1017.3 |
| 20260901173312 | 71 | 219 | 0.0 | 0.0 | 0.00 | 1.01 | 1.01 | 99 | 1017.0 |
| 20260901172809 | 71 | 219 | 0.0 | 0.0 | 0.00 | 1.01 | 1.01 | 99 | 1017.2 |
| 20260901172308 | 71 | 229 | 0.0 | 0.0 | 0.00 | 1.01 | 1.01 | 99 | 1017.1 |
| 20260901171806 | 71 | 159 | 0.0 | 0.0 | 0.00 | 1.01 | 1.01 | 99 | 1017.2 |
| 20260901171305 | 71 | 136 | 0.0 | 0.0 | 0.00 | 1.01 | 1.01 | 99 | 1016.9 |
| 20260901170804 | 71 | 166 | 0.0 | 2.0 | 0.00 | 1.01 | 1.01 | 99 | 1017.1 |
| 20260901170259 | 71 | 228 | 0.0 | 0.0 | 0.00 | 1.01 | 1.01 | 99 | 1016.9 |
| 20260901165758 | 71 | 171 | 0.0 | 0.0 | 0.00 | 1.01 | 1.01 | 99 | 1016.9 |
| 20260901165253 | 70 | 200 | 0.0 | 1.0 | 0.00 | 1.01 | 1.01 | 99 | 1016.8 |
| 20260901164749 | 70 | 182 | 0.0 | 0.0 | 0.00 | 1.01 | 1.01 | 99 | 1017.1 |
| 20260901164244 | 70 | 134 | 0.0 | 0.0 | 0.00 | 1.01 | 1.01 | 99 | 1017.1 |
| 20260901163739 | 69 | 194 | 0.0 | 0.0 | 0.00 | 1.01 | 1.01 | 99 | 1017.0 |
| 20260901163239 | 69 | 192 | 0.0 | 0.0 | 0.00 | 1.01 | 1.01 | 99 | 1017.4 |
| 20260901162734 | 69 | 198 | 0.0 | 0.0 | 0.00 | 1.01 | 1.01 | 99 | 1017.4 |
| 20260901162233 | 69 | 198 | 0.0 | 0.0 | 0.00 | 1.01 | 1.01 | 99 | 1017.4 |
| 20260901161732 | 68 | 190 | 0.0 | 0.0 | 0.00 | 1.01 | 1.01 | 99 | 1017.4 |
| 20260901161227 | 68 | 191 | 0.0 | 0.0 | 0.00 | 1.01 | 1.01 | 99 | 1017.8 |
| 20260901160723 | 68 | 208 | 0.0 | 0.0 | 0.00 | 1.01 | 1.01 | 99 | 1017.5 |
| 20260901160219 | 68 | 207 | 0.0 | 0.0 | 0.00 | 1.01 | 1.01 | 99 | 1017.8 |
| 20260901155717 | 67 | 206 | 0.0 | 0.0 | 0.00 | 1.01 | 1.01 | 99 | 1017.8 |
| 20260901155213 | 68 | 194 | 0.0 | 0.0 | 0.00 | 1.01 | 1.01 | 99 | 1017.6 |
| 20260901154708 | 67 | 200 | 0.0 | 0.0 | 0.12 | 1.01 | 1.01 | 99 | 1018.0 |
| 20260901154202 | 67 | 221 | 0.0 | 0.0 | 0.28 | 1.01 | 1.01 | 99 | 1018.0 |
| 20260901153658 | 67 | 233 | 0.0 | 0.0 | 0.54 | 0.98 | 0.98 | 99 | 1017.9 |
| 20260901153152 | 68 | 191 | 0.0 | 0.0 | 0.35 | 0.95 | 0.95 | 99 | 1017.8 |
| 20260901152646 | 68 | 221 | 0.0 | 0.0 | 0.00 | 0.89 | 0.89 | 99 | 1017.8 |
| 20260901152145 | 68 | 211 | 0.0 | 0.0 | 0.07 | 0.89 | 0.89 | 99 | 1017.8 |
| 20260901151641 | 67 | 204 | 0.0 | 0.0 | 0.07 | 0.89 | 0.89 | 99 | 1017.4 |
| 20260901151140 | 67 | 151 | 0.0 | 0.0 | 0.00 | 0.88 | 0.88 | 99 | 1017.8 |
| 20260901150639 | 67 | 176 | 0.0 | 0.0 | 0.00 | 0.88 | 0.88 | 99 | 1017.6 |
| 20260901150137 | 66 | 213 | 0.0 | 0.0 | 0.12 | 0.88 | 0.88 | 99 | 1017.6 |
| 20260901145636 | 66 | 211 | 0.0 | 0.0 | 0.24 | 0.88 | 0.88 | 99 | 1017.9 |
| 20260901145130 | 66 | 191 | 0.0 | 0.0 | 0.47 | 0.86 | 0.86 | 99 | 1017.8 |
| 20260901144626 | 66 | 231 | 0.0 | 0.0 | 0.78 | 0.83 | 0.83 | 99 | 1018.0 |
| 20260901144121 | 66 | 193 | 0.0 | 0.0 | 0.59 | 0.77 | 0.77 | 99 | 1018.2 |
| 20260901143615 | 66 | 221 | 0.0 | 0.0 | 0.31 | 0.69 | 0.69 | 99 | 1018.0 |
| 20260901143112 | 66 | 201 | 0.0 | 0.0 | 0.40 | 0.66 | 0.66 | 99 | 1017.6 |
| 20260901142608 | 66 | 215 | 0.0 | 0.0 | 0.35 | 0.63 | 0.63 | 99 | 1017.5 |
| 20260901142106 | 66 | 206 | 0.0 | 0.0 | 0.38 | 0.59 | 0.59 | 99 | 1017.5 |
| 20260901141601 | 66 | 207 | 0.0 | 0.0 | 0.47 | 0.55 | 0.55 | 99 | 1017.5 |
| 20260901141051 | 66 | 216 | 0.0 | 1.0 | 0.66 | 0.52 | 0.52 | 99 | 1017.4 |
| 20260901140549 | 66 | 197 | 0.0 | 0.0 | 0.42 | 0.46 | 0.46 | 99 | 1017.6 |
| 20260901140044 | 66 | 199 | 0.0 | 0.0 | 0.31 | 0.41 | 0.41 | 99 | 1018.0 |
| 20260901135543 | 66 | 201 | 0.0 | 0.0 | 0.28 | 0.38 | 0.38 | 99 | 1017.9 |
| 20260901135038 | 66 | 208 | 0.0 | 0.0 | 0.42 | 0.36 | 0.36 | 99 | 1018.4 |
| 20260901134534 | 66 | 203 | 0.0 | 0.0 | 0.38 | 0.33 | 0.33 | 99 | 1018.4 |
| 20260901134029 | 66 | 188 | 0.0 | 1.0 | 0.07 | 0.28 | 0.28 | 99 | 1018.1 |
| 20260901133528 | 66 | 277 | 0.0 | 0.0 | 0.05 | 0.27 | 0.27 | 99 | 1018.6 |
| 20260901133026 | 67 | 215 | 0.0 | 0.0 | 0.17 | 0.27 | 0.27 | 99 | 1018.2 |
| 20260901132521 | 67 | 210 | 0.0 | 0.0 | 0.24 | 0.26 | 0.26 | 99 | 1018.0 |
| 20260901132020 | 67 | 219 | 0.0 | 0.0 | 0.19 | 0.24 | 0.24 | 99 | 1018.0 |
| 20260901131515 | 67 | 167 | 0.0 | 0.0 | 0.19 | 0.22 | 0.22 | 99 | 1018.2 |
| 20260901131005 | 67 | 49 | 0.0 | 0.0 | 0.14 | 0.20 | 0.20 | 99 | 1018.0 |
| 20260901130459 | 67 | 231 | 0.0 | 0.0 | 0.19 | 0.19 | 0.19 | 99 | 1018.4 |
| 20260901125956 | 67 | 205 | 0.0 | 1.0 | 0.47 | 0.18 | 0.18 | 99 | 1018.3 |
| 20260901125456 | 68 | 233 | 0.0 | 0.0 | 0.54 | 0.15 | 0.15 | 99 | 1018.2 |
| 20260901124951 | 67 | 230 | 0.0 | 3.0 | 0.26 | 0.09 | 0.09 | 99 | 1018.7 |
| 20260901124446 | 67 | 237 | 0.0 | 0.0 | 0.07 | 0.06 | 0.06 | 99 | 1018.7 |
| 20260901123941 | 67 | 214 | 0.0 | 0.0 | 0.00 | 0.05 | 0.05 | 99 | 1017.8 |
| 20260901123436 | 67 | 192 | 0.0 | 1.0 | 0.00 | 0.05 | 0.05 | 99 | 1017.5 |
| 20260901122934 | 67 | 177 | 0.0 | 1.0 | 0.00 | 0.05 | 0.05 | 99 | 1017.3 |
| 20260901122434 | 67 | 188 | 0.0 | 0.0 | 0.00 | 0.05 | 0.05 | 99 | 1018.0 |
| 20260901121933 | 67 | 225 | 0.0 | 0.0 | 0.05 | 0.05 | 0.05 | 99 | 1018.3 |
| 20260901121428 | 67 | 139 | 0.0 | 0.0 | 0.12 | 0.05 | 0.05 | 99 | 1018.1 |
| 20260901120923 | 67 | 239 | 0.0 | 0.0 | 0.12 | 0.04 | 0.04 | 99 | 1018.2 |
| 20260901120423 | 67 | 233 | 0.0 | 0.0 | 0.17 | 0.03 | 0.03 | 99 | 1018.3 |
| 20260901115919 | 67 | 181 | 0.0 | 0.0 | 0.12 | 0.02 | 0.02 | 99 | 1017.8 |
| 20260901115418 | 67 | 196 | 0.0 | 0.0 | 0.00 | 0.00 | 0.00 | 99 | 1018.2 |
| 20260901114916 | 67 | 197 | 0.0 | 0.0 | 0.00 | 0.00 | 0.00 | 99 | 1017.8 |
| 20260901114412 | 66 | 194 | 0.0 | 0.0 | 0.00 | 0.00 | 0.00 | 99 | 1017.8 |
| 20260901113910 | 66 | 197 | 0.0 | 0.0 | 0.00 | 0.00 | 0.00 | 99 | 1017.6 |
| 20260901113409 | 66 | 209 | 0.0 | 0.0 | 0.00 | 0.00 | 0.00 | 99 | 1017.9 |